Location: Antichan
(42.9728°N, 0.6667°E)
Time: 18:54:02
(UTC+00:00)

Cosmos 841 Rocket - Pass Details

Date: 15 August 2020
Orbit: 746 x 773 km, 74.0° (Epoch: 20 September)

Event Time Altitude Azimuth Distance (km) Brightness Sun altitude
Rises 22:02:21 0° 332° (NNW) 3,237 8.0 -27.1°
Reaches altitude 10° 22:04:49 10° 326° (NW) 2,311 7.0 -27.3°
Maximum altitude 22:09:42 41° 257° (WSW) 1,108 4.4 -27.8°
Enters shadow 22:10:02 40° 248° (WSW) 1,117 4.3 -27.8°
